| time (UTC) | temp F | wind direction | speed MPH | gust MPH | rain 1hr in | rain 24hr in | rain mn in | humidity % | barometer mb |
| 20260504150609 | 71 | 194 | 0.0 | 2.0 | 0.00 | 0.00 | 0.00 | 58 | 1011.8 |
| 20260504140943 | 72 | 213 | 1.0 | 1.0 | 0.00 | 0.00 | 0.00 | 54 | 1011.9 |
| 20260504140433 | 73 | 56 | 1.0 | 2.0 | 0.00 | 0.00 | 0.00 | 53 | 1012.2 |
| 20260504110343 | 68 | 210 | 1.0 | 1.0 | 0.00 | 0.00 | 0.00 | 67 | 1012.6 |
| 20260504081313 | 69 | 109 | 2.0 | 4.0 | 0.00 | 0.00 | 0.00 | 64 | 1012.8 |
| 20260504080803 | 69 | 208 | 5.0 | 7.0 | 0.00 | 0.00 | 0.00 | 64 | 1012.6 |
| 20260504080330 | 69 | 68 | 1.0 | 3.0 | 0.00 | 0.00 | 0.00 | 65 | 1012.6 |
| 20260504050240 | 56 | 165 | 0.0 | 0.0 | 0.00 | 0.00 | 0.00 | 88 | 1011.5 |
| 20260504045652 | 56 | 165 | 0.0 | 0.0 | 0.00 | 0.00 | 0.00 | 88 | 1011.3 |
| 20260504044635 | 56 | 165 | 0.0 | 0.0 | 0.00 | 0.00 | 0.00 | 87 | 1011.5 |
| 20260504043612 | 57 | 165 | 0.0 | 0.0 | 0.00 | 0.00 | 0.00 | 88 | 1011.7 |
| 20260504042552 | 56 | 165 | 0.0 | 0.0 | 0.00 | 0.00 | 0.00 | 89 | 1011.2 |
| 20260504042042 | 56 | 165 | 0.0 | 0.0 | 0.00 | 0.00 | 0.00 | 89 | 1011.3 |
| 20260504041025 | 56 | 165 | 0.0 | 0.0 | 0.00 | 0.00 | 0.00 | 89 | 1011.2 |
| 20260504040517 | 57 | 165 | 0.0 | 0.0 | 0.00 | 0.00 | 0.00 | 89 | 1011.0 |
| 20260504035421 | 57 | 165 | 0.0 | 0.0 | 0.00 | 0.00 | 0.00 | 87 | 1011.1 |
| 20260504034911 | 57 | 165 | 0.0 | 0.0 | 0.00 | 0.00 | 0.00 | 86 | 1010.8 |
| 20260504034401 | 58 | 165 | 0.0 | 0.0 | 0.00 | 0.00 | 0.00 | 85 | 1010.9 |
| 20260504033850 | 58 | 165 | 0.0 | 0.0 | 0.00 | 0.00 | 0.00 | 84 | 1011.0 |
| 20260504033341 | 58 | 165 | 0.0 | 0.0 | 0.00 | 0.00 | 0.00 | 84 | 1011.2 |
| 20260504032321 | 60 | 165 | 0.0 | 0.0 | 0.00 | 0.00 | 0.00 | 82 | 1011.3 |
| 20260504031811 | 60 | 165 | 0.0 | 0.0 | 0.00 | 0.00 | 0.00 | 80 | 1011.3 |
| 20260504031301 | 61 | 165 | 0.0 | 0.0 | 0.00 | 0.00 | 0.00 | 77 | 1011.3 |
| 20260504030751 | 60 | 166 | 0.0 | 0.0 | 0.00 | 0.00 | 0.00 | 73 | 1011.4 |
| 20260504030241 | 61 | 165 | 0.0 | 1.0 | 0.00 | 0.00 | 0.00 | 73 | 1011.6 |
| 20260504025731 | 61 | 165 | 0.0 | 1.0 | 0.00 | 0.00 | 0.00 | 70 | 1011.2 |
| 20260504024749 | 61 | 163 | 0.0 | 0.0 | 0.00 | 0.00 | 0.00 | 68 | 1011.3 |
| 20260504023650 | 61 | 164 | 0.0 | 1.0 | 0.00 | 0.00 | 0.00 | 65 | 1011.4 |
| 20260504022630 | 62 | 165 | 0.0 | 0.0 | 0.00 | 0.00 | 0.00 | 66 | 1011.4 |
| 20260504022120 | 62 | 165 | 0.0 | 2.0 | 0.00 | 0.00 | 0.00 | 65 | 1011.5 |
| 20260504021223 | 62 | 160 | 0.0 | 1.0 | 0.00 | 0.00 | 0.00 | 64 | 1011.3 |
| 20260504020629 | 62 | 162 | 1.0 | 1.0 | 0.00 | 0.00 | 0.00 | 63 | 1011.3 |
| 20260504020119 | 62 | 163 | 0.0 | 1.0 | 0.00 | 0.00 | 0.00 | 62 | 1011.1 |
| 20260504015533 | 63 | 167 | 0.0 | 0.0 | 0.00 | 0.00 | 0.00 | 61 | 1011.3 |
| 20260504015020 | 63 | 164 | 0.0 | 0.0 | 0.00 | 0.00 | 0.00 | 60 | 1011.2 |
| 20260504012940 | 62 | 166 | 0.0 | 0.0 | 0.00 | 0.00 | 0.00 | 61 | 1011.1 |
| 20260504012431 | 62 | 164 | 0.0 | 0.0 | 0.00 | 0.00 | 0.00 | 61 | 1011.2 |
| 20260504011959 | 62 | 164 | 0.0 | 0.0 | 0.00 | 0.00 | 0.00 | 61 | 1010.7 |
| 20260504011410 | 63 | 164 | 0.0 | 0.0 | 0.00 | 0.00 | 0.00 | 60 | 1010.6 |
| 20260504010938 | 63 | 164 | 0.0 | 0.0 | 0.00 | 0.00 | 0.00 | 59 | 1010.6 |
| 20260504010003 | 61 | 164 | 0.0 | 0.0 | 0.00 | 0.00 | 0.00 | 61 | 1010.7 |
| 20260504005456 | 62 | 168 | 0.0 | 0.0 | 0.00 | 0.00 | 0.00 | 62 | 1010.8 |
| 20260504004820 | 62 | 170 | 0.0 | 0.0 | 0.00 | 0.00 | 0.00 | 63 | 1010.9 |
| 20260504004310 | 62 | 170 | 0.0 | 0.0 | 0.00 | 0.00 | 0.00 | 63 | 1010.7 |
| 20260504003800 | 63 | 169 | 0.0 | 0.0 | 0.00 | 0.00 | 0.00 | 62 | 1010.8 |
| 20260504003250 | 63 | 170 | 0.0 | 0.0 | 0.00 | 0.00 | 0.00 | 62 | 1010.8 |
| 20260504002740 | 64 | 170 | 0.0 | 0.0 | 0.00 | 0.00 | 0.00 | 60 | 1010.6 |
| 20260504001720 | 65 | 169 | 0.0 | 0.0 | 0.00 | 0.00 | 0.00 | 57 | 1010.5 |
| 20260504001213 | 65 | 169 | 0.0 | 0.0 | 0.00 | 0.00 | 0.00 | 55 | 1010.7 |
| 20260504000150 | 66 | 169 | 0.0 | 1.0 | 0.00 | 0.00 | 0.00 | 53 | 1010.8 |
| 20260503235640 | 66 | 169 | 0.0 | 0.0 | 0.00 | 0.00 | 0.00 | 52 | 1011.0 |
| 20260503234620 | 66 | 171 | 0.0 | 1.0 | 0.00 | 0.00 | 0.00 | 52 | 1010.7 |
| 20260503234110 | 66 | 198 | 0.0 | 1.0 | 0.00 | 0.00 | 0.00 | 52 | 1010.9 |
| 20260503233600 | 67 | 165 | 0.0 | 2.0 | 0.00 | 0.00 | 0.00 | 50 | 1010.8 |
| 20260503232540 | 67 | 152 | 2.0 | 2.0 | 0.00 | 0.00 | 0.00 | 50 | 1011.0 |
| 20260503232030 | 67 | 204 | 0.0 | 1.0 | 0.00 | 0.00 | 0.00 | 50 | 1011.1 |
| 20260503231558 | 68 | 72 | 0.0 | 1.0 | 0.00 | 0.00 | 0.00 | 49 | 1011.1 |
| 20260503230500 | 68 | 169 | 0.0 | 1.0 | 0.00 | 0.00 | 0.00 | 49 | 1011.2 |
| 20260503225950 | 68 | 118 | 1.0 | 1.0 | 0.00 | 0.00 | 0.00 | 49 | 1011.2 |
| 20260503225440 | 68 | 172 | 0.0 | 2.0 | 0.00 | 0.00 | 0.00 | 50 | 1010.9 |
| 20260503224930 | 68 | 166 | 0.0 | 1.0 | 0.00 | 0.00 | 0.00 | 50 | 1011.0 |
| 20260503224458 | 68 | 179 | 0.0 | 1.0 | 0.00 | 0.00 | 0.00 | 49 | 1011.0 |
| 20260503223948 | 68 | 92 | 1.0 | 2.0 | 0.00 | 0.00 | 0.00 | 50 | 1011.1 |
| 20260503223400 | 68 | 199 | 0.0 | 1.0 | 0.00 | 0.00 | 0.00 | 52 | 1011.1 |
| 20260503222850 | 67 | 184 | 0.0 | 1.0 | 0.00 | 0.00 | 0.00 | 53 | 1010.7 |
| 20260503222340 | 67 | 191 | 0.0 | 2.0 | 0.00 | 0.00 | 0.00 | 53 | 1010.7 |
| 20260503221833 | 66 | 221 | 0.0 | 1.0 | 0.00 | 0.00 | 0.00 | 54 | 1010.6 |
| 20260503220810 | 64 | 185 | 0.0 | 0.0 | 0.00 | 0.00 | 0.00 | 69 | 1010.5 |
| 20260503220300 | 64 | 184 | 0.0 | 0.0 | 0.00 | 0.00 | 0.00 | 69 | 1010.4 |
| 20260503214733 | 65 | 184 | 0.0 | 0.0 | 0.00 | 0.00 | 0.00 | 73 | 1010.7 |
| 20260503214220 | 65 | 183 | 0.0 | 0.0 | 0.00 | 0.00 | 0.00 | 67 | 1010.5 |
| 20260503213710 | 66 | 187 | 0.0 | 0.0 | 0.00 | 0.00 | 0.00 | 67 | 1010.6 |
| 20260503213200 | 67 | 187 | 0.0 | 0.0 | 0.00 | 0.00 | 0.00 | 64 | 1010.3 |
| 20260503211120 | 69 | 182 | 0.0 | 0.0 | 0.00 | 0.00 | 0.00 | 48 | 1010.1 |
| 20260503210610 | 70 | 136 | 0.0 | 1.0 | 0.00 | 0.00 | 0.00 | 49 | 1010.0 |
| 20260503210100 | 70 | 176 | 0.0 | 1.0 | 0.00 | 0.00 | 0.00 | 48 | 1009.9 |
| 20260503204058 | 65 | 175 | 0.0 | 0.0 | 0.00 | 0.00 | 0.00 | 65 | 1010.1 |
| 20260503203510 | 65 | 175 | 0.0 | 0.0 | 0.00 | 0.00 | 0.00 | 65 | 1010.1 |
| 20260503203000 | 65 | 175 | 0.0 | 0.0 | 0.00 | 0.00 | 0.00 | 66 | 1010.1 |
| 20260503201943 | 66 | 175 | 0.0 | 0.0 | 0.00 | 0.00 | 0.00 | 61 | 1010.1 |
| 20260503200920 | 67 | 175 | 0.0 | 0.0 | 0.00 | 0.00 | 0.00 | 59 | 1010.4 |
| 20260503200410 | 67 | 175 | 0.0 | 0.0 | 0.00 | 0.00 | 0.00 | 58 | 1010.5 |
| 20260503195938 | 68 | 175 | 0.0 | 0.0 | 0.00 | 0.00 | 0.00 | 57 | 1010.2 |
| 20260503195350 | 68 | 175 | 0.0 | 0.0 | 0.00 | 0.00 | 0.00 | 56 | 1010.2 |
| 20260503194839 | 68 | 175 | 0.0 | 0.0 | 0.00 | 0.00 | 0.00 | 56 | 1010.3 |
| 20260503194329 | 69 | 174 | 0.0 | 0.0 | 0.00 | 0.00 | 0.00 | 55 | 1010.3 |
| 20260503193819 | 69 | 197 | 0.0 | 0.0 | 0.00 | 0.00 | 0.00 | 55 | 1010.0 |
| 20260503193309 | 69 | 197 | 0.0 | 0.0 | 0.00 | 0.00 | 0.00 | 55 | 1010.2 |
| 20260503192837 | 69 | 180 | 0.0 | 0.0 | 0.00 | 0.00 | 0.00 | 54 | 1010.1 |
| 20260503191739 | 69 | 184 | 0.0 | 0.0 | 0.00 | 0.00 | 0.00 | 57 | 1010.1 |
| 20260503190719 | 69 | 184 | 0.0 | 0.0 | 0.00 | 0.00 | 0.00 | 55 | 1010.1 |
| 20260503184639 | 70 | 184 | 0.0 | 0.0 | 0.00 | 0.00 | 0.00 | 60 | 1009.8 |
| 20260503184208 | 71 | 183 | 0.0 | 0.0 | 0.00 | 0.00 | 0.00 | 58 | 1009.6 |
| 20260503183620 | 71 | 184 | 0.0 | 0.0 | 0.00 | 0.00 | 0.00 | 56 | 1009.8 |
| 20260503183109 | 71 | 184 | 0.0 | 0.0 | 0.00 | 0.00 | 0.00 | 55 | 1009.3 |
| 20260503182638 | 72 | 184 | 0.0 | 0.0 | 0.00 | 0.00 | 0.00 | 56 | 1009.7 |
| 20260503182049 | 73 | 184 | 0.0 | 0.0 | 0.00 | 0.00 | 0.00 | 56 | 1009.6 |
| 20260503181539 | 73 | 184 | 0.0 | 0.0 | 0.00 | 0.00 | 0.00 | 53 | 1009.4 |
| 20260503181029 | 74 | 184 | 0.0 | 0.0 | 0.00 | 0.00 | 0.00 | 52 | 1009.4 |
| 20260503180519 | 74 | 183 | 0.0 | 0.0 | 0.00 | 0.00 | 0.00 | 52 | 1009.4 |
| 20260503180010 | 75 | 183 | 0.0 | 0.0 | 0.00 | 0.00 | 0.00 | 50 | 1009.5 |
| 20260503175459 | 75 | 183 | 0.0 | 0.0 | 0.00 | 0.00 | 0.00 | 49 | 1009.6 |
| 20260503175033 | 76 | 183 | 0.0 | 0.0 | 0.00 | 0.00 | 0.00 | 48 | 1009.6 |
| 20260503173930 | 76 | 183 | 0.0 | 0.0 | 0.00 | 0.00 | 0.00 | 42 | 1009.6 |
| 20260503173458 | 77 | 163 | 0.0 | 0.0 | 0.00 | 0.00 | 0.00 | 39 | 1009.5 |
| 20260503171849 | 78 | 183 | 0.0 | 0.0 | 0.00 | 0.00 | 0.00 | 44 | 1009.5 |
| 20260503170319 | 79 | 183 | 0.0 | 0.0 | 0.00 | 0.00 | 0.00 | 36 | 1009.5 |